Location: C.E.K. Mees Observatory
(42.7003°N, 77.4088°W)
Time: 09:40:28
(UTC-04:00)

Envisat - Pass Details

Date: 16 October 2017
Orbit: 764 x 766 km, 98.2° (Epoch: 23 October)

Event Time Altitude Azimuth Distance (km) Brightness Sun altitude
Exits shadow 22:26:29 12° 292° (WNW) 2,160 5.9 -43.4°
Drops below altitude 10° 22:27:23 10° 301° (WNW) 2,306 6.1 -43.6°
Sets 22:30:55 0° 327° (NNW) 3,238 6.9 -44.1°
